WetterOnline ( https://www.wetteronline.de )

Wetter aktuell Cheb

Aktuelles Wetter: Cheb (490m)

6-stündlich | Neueste Meldungen
Ortszeit Temperatur Wetter
Sa, 18.05. 2:00 9.7° C bedeckt
Fr, 17.05. 20:00 11.3° C bewölkt
Fr, 17.05. 14:00 11.9° C leichter Regen
Fr, 17.05. 8:00 13.3° C bedeckt
Fr, 17.05. 2:00 14.0° C wolkenlos
Do, 16.05. 20:00 16.4° C wolkig
Do, 16.05. 14:00 17.0° C bewölkt
Do, 16.05. 8:00 14.2° C wolkig
Ortszeit Temperatur Wetter
Sa, 18.05. 6:00 9.9° C leichte Schauer
Sa, 18.05. 5:00 9.9° C -
Sa, 18.05. 4:00 9.9° C bedeckt
Sa, 18.05. 3:00 9.8° C bedeckt
Sa, 18.05. 2:00 9.7° C bedeckt
Sa, 18.05. 1:00 9.7° C bedeckt
Ortszeit Relative Feuchte Sichtweite
Sa, 18.05. 2:00 96% 6 km
Fr, 17.05. 20:00 82% 35 km
Fr, 17.05. 14:00 91% 5.0 km
Fr, 17.05. 8:00 66% 40 km
Fr, 17.05. 2:00 64% 35 km
Do, 16.05. 20:00 62% 45 km
Do, 16.05. 14:00 62% 40 km
Do, 16.05. 8:00 65% 45 km
Ortszeit Relative Feuchte Sichtweite
Sa, 18.05. 6:00 94% 29 km
Sa, 18.05. 5:00 92% -
Sa, 18.05. 4:00 93% 28 km
Sa, 18.05. 3:00 96% 7 km
Sa, 18.05. 2:00 96% 6 km
Sa, 18.05. 1:00 95% 10 km
Ortszeit Niederschlagsmenge Niederschlagsart
Sa, 18.05. 2:00 0.1 l/m2 in 6 Std. Regenschauer
Fr, 17.05. 20:00 3 l/m2 in 12 Std. -
Fr, 17.05. 14:00 2 l/m2 in 6 Std. -
Fr, 17.05. 8:00 0.0 l/m2 in 12 Std. -
Fr, 17.05. 2:00 0.0 l/m2 in 6 Std. -
Do, 16.05. 20:00 0.1 l/m2 in 12 Std. -
Do, 16.05. 14:00 0.1 l/m2 in 6 Std. -
Do, 16.05. 8:00 0.0 l/m2 in 12 Std. -
Ortszeit Niederschlagsmenge Niederschlagsart
Sa, 18.05. 6:00 0.0 l/m2 in 1 Std. Regen
Sa, 18.05. 5:00 0.0 l/m2 in 1 Std. -
Sa, 18.05. 4:00 0.0 l/m2 in 1 Std. -
Sa, 18.05. 3:00 0.1 l/m2 in 1 Std. -
Sa, 18.05. 2:00 0.0 l/m2 in 1 Std. Regenschauer
Sa, 18.05. 1:00 0.0 l/m2 in 1 Std. Regenschauer
Ortszeit Stärke Spitze Richtung
km/h Bft. km/h Grad Sektor
Sa, 18.05. 2:00 7 2 - 150° SO
Fr, 17.05. 20:00 11 2 - 180° S
Fr, 17.05. 14:00 14 3 40 100° O
Fr, 17.05. 8:00 11 2 47 60° NO
Fr, 17.05. 2:00 18 3 40 110° O
Do, 16.05. 20:00 22 4 40 90° O
Do, 16.05. 14:00 14 3 - 120° SO
Do, 16.05. 8:00 11 2 - 80° O
Ortszeit Stärke Spitze Richtung
km/h Bft. km/h Grad Sektor
Sa, 18.05. 6:00 7 2 - 170° S
Sa, 18.05. 5:00 7 2 - 170° S
Sa, 18.05. 4:00 11 2 - 170° S
Sa, 18.05. 3:00 7 2 - 170° S
Sa, 18.05. 2:00 7 2 - 150° SO
Sa, 18.05. 1:00 7 2 - 160° S
Ortszeit Untergrenze Bedeckung Gattung
total tief tief mittel hoch
Sa, 18.05. 2:00 270 m - 8/8 - - -
Fr, 17.05. 20:00 480 m 7/8 7/8 Cu - -
Fr, 17.05. 14:00 390 m 8/8 8/8 Sc - -
Fr, 17.05. 8:00 960 m 8/8 8/8 Sc - -
Fr, 17.05. 2:00 9000 m - 0/8 - - -
Do, 16.05. 20:00 1080 m 7/8 4/8 Cu - Ci
Do, 16.05. 14:00 990 m 7/8 2/8 Cu As -
Do, 16.05. 8:00 2700 m 7/8 7/8 - As -
Ortszeit Bedeckungsgrad in Achtel und Wolkenuntergrenze
Sa, 18.05. 6:00 8(210m)
Sa, 18.05. 5:00 -
Sa, 18.05. 4:00 8(240m)
Sa, 18.05. 3:00 8(180m)
Sa, 18.05. 2:00 8(270m)
Sa, 18.05. 1:00 8(300m)
Ortszeit Luftdruck NN (hPa) Tendenz (hPa in 3 Std.)
Sa, 18.05. 2:00 1010 - 0,3
Fr, 17.05. 20:00 1009 + 0,7
Fr, 17.05. 14:00 1007 + 0,8
Fr, 17.05. 8:00 1005 + 0,5
Fr, 17.05. 2:00 1006 - 1,3
Do, 16.05. 20:00 1006 - 0,2
Do, 16.05. 14:00 1007 - 0,4
Do, 16.05. 8:00 1008 + 0,3
Ortszeit Luftdruck NN (hPa) Tendenz (hPa in 3 Std.)
Sa, 18.05. 6:00 1009 - 0,1
Sa, 18.05. 5:00 1009 - 0,4
Sa, 18.05. 4:00 1009 - 0,4
Sa, 18.05. 3:00 1009 - 0,5
Sa, 18.05. 2:00 1010 - 0,3
Sa, 18.05. 1:00 1010 - 0,2
Ortszeit Schneehöhe (cm)
Sa, 18.05. 2:00 -
Fr, 17.05. 20:00 -
Fr, 17.05. 14:00 -
Fr, 17.05. 8:00 -
Fr, 17.05. 2:00 -
Do, 16.05. 20:00 -
Do, 16.05. 14:00 -
Do, 16.05. 8:00 -
Ortszeit Schneehöhe (cm)
Sa, 18.05. 6:00 -
Sa, 18.05. 5:00 -
Sa, 18.05. 4:00 -
Sa, 18.05. 3:00 -
Sa, 18.05. 2:00 -
Sa, 18.05. 1:00 -
Link zu dieser Seite / Seite empfehlen

Das Wetter in ...